Location: Silian
(52.1333°N, 4.0833°W)
Time: 08:41:24
(UTC+00:00)

Daily predictions for brighter satellites

Satellite Brightness Start Highest point End
(mag) Time Altitude Azimuth Time Altitude Azimuth Time Altitude Azimuth
Cosmos 2082 Rocket 4.3 17:28:19 10° NNW 17:29:56 11° N 17:31:34 10° NNE
Helios 1A Rocket 3.9 17:26:18 10° S 17:30:16 54° WSW 17:34:18 10° NNW
Okean-O 2.9 17:26:14 10° SE 17:30:27 45° ENE 17:34:42 10° N
Cosmos 2237 Rocket 4.0 17:27:22 10° NW 17:32:31 37° WSW 17:37:38 10° S
Meteor 2-10 Rocket 3.5 17:27:56 10° N 17:33:11 65° ENE 17:38:14 10° SSE
AQUARIUS 4.2 17:30:19 10° SSE 17:34:49 85° ENE 17:39:21 10° NNW
CORIOLIS 4.1 17:29:57 10° SSE 17:35:19 81° ENE 17:40:41 10° NNW
YAOGAN 1 3.6 17:31:50 10° ESE 17:35:22 25° ENE 17:38:54 10° N
CZ-4 R/B 2.3 17:32:05 10° ESE 17:35:39 29° ENE 17:39:17 10° N
PSLV R/B 4.0 17:32:21 10° NNE 17:36:26 63° ESE 17:40:31 10° S
Cosmos 1703 4.0 17:33:30 10° SSE 17:37:03 32° E 17:40:37 10° NNE
CZ-4B R/B 3.3 17:38:10 10° N 17:40:49 27° WNW 17:43:29 10° SW
Cosmos 1727 Rocket 4.2 17:35:55 10° N 17:41:53 46° ENE 17:47:47 10° SE
ATLAS CENTAUR R/B 1.8 17:38:02 10° NW 17:42:05 62° SW 17:45:49 10° SSE
Cosmos 2084 4.5 17:39:37 10° NW 17:43:34 30° NNE 17:47:27 10° E
Starlink AS 2.7 17:41:35 10° WNW 17:44:32 88° S 17:47:28 10° ESE
Starlink BA 2.7 17:41:47 10° WNW 17:44:44 88° SSW 17:47:40 10° ESE
Starlink AU 2.7 17:42:01 10° WNW 17:44:57 87° SSW 17:47:53 10° ESE
Starlink AT 2.7 17:42:15 10° WNW 17:45:12 87° S 17:48:08 10° ESE
Starlink BB 2.7 17:42:28 10° WNW 17:45:25 87° SSW 17:48:21 10° ESE
Starlink BC 2.7 17:42:43 10° WNW 17:45:39 87° SSW 17:48:36 10° ESE
SL-8 Rocket 4.1 17:39:38 10° S 17:45:47 59° E 17:51:55 10° NNE
Starlink BK 2.7 17:42:55 10° WNW 17:45:51 87° S 17:48:47 10° ESE
Starlink AY 2.7 17:43:09 10° WNW 17:46:05 87° SSW 17:49:02 10° ESE
Starlink AW 2.7 17:43:24 10° WNW 17:46:20 86° S 17:49:16 10° ESE
Starlink BJ 2.7 17:43:34 10° WNW 17:46:32 86° S 17:49:27 10° ESE
Starlink AV 2.7 17:43:50 10° WNW 17:46:47 86° S 17:49:43 10° ESE
Starlink BD 2.7 17:44:03 10° WNW 17:47:00 86° S 17:49:56 10° ESE
Starlink BE 2.7 17:44:14 10° WNW 17:47:11 86° SSW 17:50:09 10° ESE
Starlink BM 2.7 17:44:30 10° WNW 17:47:27 86° SSW 17:50:23 10° ESE
Starlink AX 2.7 17:44:42 10° WNW 17:47:39 86° SSW 17:50:35 10° ESE
Starlink BH 2.7 17:44:56 10° WNW 17:47:52 85° SSW 17:50:48 10° ESE
Starlink AZ 2.7 17:45:11 10° WNW 17:48:07 85° SSW 17:51:03 10° ESE
Starlink BG 2.7 17:45:23 10° WNW 17:48:20 85° S 17:51:16 10° ESE
Starlink BF 2.7 17:45:37 10° WNW 17:48:34 85° SSW 17:51:30 10° ESE
Starlink BL 2.7 17:45:47 10° WNW 17:48:45 85° SSW 17:51:43 10° ESE
Starlink AH 2.7 17:46:03 10° WNW 17:49:00 85° SSW 17:51:56 10° ESE
Starlink AC 2.7 17:46:15 10° WNW 17:49:12 85° S 17:52:08 10° ESE
Starlink X 2.7 17:46:30 10° WNW 17:49:26 84° SSW 17:52:23 10° ESE
Starlink AE 2.7 17:46:37 10° WNW 17:49:35 84° SSW 17:52:33 10° ESE
Starlink Z 2.7 17:46:57 10° WNW 17:49:53 84° SSW 17:52:50 10° ESE
Starlink AK 2.7 17:47:12 10° WNW 17:50:09 84° S 17:53:05 10° ESE
Starlink AQ 2.7 17:47:20 10° WNW 17:50:16 84° SSW 17:53:13 10° ESE
Starlink AL 2.7 17:47:25 10° WNW 17:50:21 84° SSW 17:53:18 10° ESE
Starlink AD 2.7 17:47:36 10° WNW 17:50:32 84° SSW 17:53:29 10° ESE
Starlink Y 2.7 17:48:01 10° WNW 17:50:58 83° SSW 17:53:54 10° ESE
Starlink AG 2.7 17:48:15 10° WNW 17:51:11 83° SSW 17:54:07 10° ESE
Starlink W 2.7 17:48:28 10° WNW 17:51:26 83° SSW 17:54:24 10° ESE
Starlink AJ 2.7 17:48:42 10° WNW 17:51:39 83° SSW 17:54:35 10° ESE
USA 102 3.8 17:49:11 10° SE 17:51:59 15° SE 17:52:39 14° ESE
Starlink AM 2.7 17:49:09 10° WNW 17:52:06 83° SSW 17:55:02 10° ESE
Starlink AP 2.7 17:49:23 10° WNW 17:52:19 82° SSW 17:55:15 10° ESE
Starlink AA 2.7 17:49:37 10° WNW 17:52:33 82° SSW 17:55:29 10° ESE
Starlink AF 2.7 17:49:49 10° WNW 17:52:46 82° SSW 17:55:41 10° ESE
Starlink AB 2.7 17:50:03 10° WNW 17:52:59 82° SSW 17:55:55 10° ESE
Starlink AN 2.7 17:50:15 10° WNW 17:53:11 82° SSW 17:56:07 10° ESE
YAOGAN 6 2.5 17:52:56 10° SSE 17:56:33 63° ENE 18:00:08 10° N
Starlink T 3.0 17:56:23 10° WNW 17:59:40 81° SSW 18:02:51 11° ESE
SL-16 R/B 3.0 17:54:48 10° NW 18:00:21 56° WSW 18:05:51 10° S
Starlink N 3.0 17:58:36 10° WNW 18:01:54 79° SSW 18:05:00 11° ESE
CZ-2D R/B 4.1 17:59:15 10° SE 18:02:36 29° ENE 18:06:00 10° N
Cosmos 1140 Rocket 4.2 17:57:52 10° NNW 18:02:38 33° NE 18:07:21 10° ESE
Starlink AR 2.8 18:00:16 10° WNW 18:03:00 66° SSW 18:05:32 11° ESE
Cosmos 1356 Rocket 3.3 18:00:03 10° N 18:04:07 67° ENE 18:08:14 10° SSE
Starlink Q 3.1 18:01:04 10° WNW 18:04:21 78° SSW 18:07:22 12° ESE
Cosmos 1953 Rocket 3.5 18:00:46 10° S 18:05:15 79° E 18:09:45 10° NNE
Cosmos 1842 Rocket 3.8 18:01:57 10° N 18:06:21 50° ENE 18:10:43 10° SSE
Starlink P 3.1 18:03:22 10° WNW 18:06:39 76° SSW 18:09:35 12° ESE
Cosmos 1869 4.3 18:03:58 10° NNE 18:07:17 24° ENE 18:10:34 10° SE
COSMO-SKYMED 1 3.0 18:03:10 10° NNE 18:07:20 42° E 18:11:28 10° S
NOAA 12 4.4 18:02:47 10° S 18:08:00 71° WSW 18:13:17 10° NNW
Cosmos 1758 Rocket 4.1 18:04:41 10° SSW 18:08:57 61° WNW 18:13:17 10° N
Starlink U 3.1 18:05:41 10° WNW 18:08:58 75° SSW 18:11:49 13° ESE
Cosmos 44 3.2 18:04:35 10° SW 18:09:06 76° NW 18:13:17 11° NE
Cosmos 2082 3.7 18:05:40 10° SSW 18:11:17 85° ESE 18:16:59 10° NNE
Starlink B 3.1 18:08:02 10° WNW 18:11:18 73° SSW 18:14:04 14° ESE
Cosmos 1603 3.7 18:08:09 10° NNW 18:13:50 68° NE 18:19:26 10° SE
Cosmos 2219 4.1 18:08:35 10° SW 18:14:00 47° NW 18:19:30 10° NNE
Cosmos 2297 Rocket 2.7 18:08:49 10° SW 18:14:24 60° NW 18:20:03 10° NNE
Cosmos 2341 Rocket 4.4 18:10:21 10° SSW 18:16:41 69° WNW 18:23:00 10° N
Cosmos 2263 Rocket 3.2 18:13:05 10° SSE 18:17:31 25° ESE 18:20:23 17° ENE
USA 116 4.3 18:18:07 22° E 18:18:32 23° E 18:21:05 10° SSE
ISS -3.7 18:15:38 10° W 18:19:01 79° S 18:21:01 23° E
Cosmos 1821 Rocket 4.5 18:14:55 10° SSE 18:20:38 38° E 18:26:19 10° NNE
Cosmos 864 Rocket 4.4 18:14:45 10° S 18:20:51 78° E 18:27:03 10° NNE
Cosmos 1939 Rocket 3.0 18:20:37 10° SE 18:24:26 48° ENE 18:28:21 10° N
USA 267 3.3 18:22:01 16° ENE 18:27:26 71° SSE 18:33:58 10° SW
Cosmos 2221 2.5 18:23:38 10° N 18:27:54 61° ENE 18:32:10 10° SSE
Envisat 3.9 18:23:08 10° S 18:28:05 52° W 18:33:04 10° NNW
Cosmos 2227 Rocket 2.9 18:22:43 10° SW 18:28:15 53° NW 18:33:49 10° NNE
Starlink D 3.4 18:25:50 10° WNW 18:29:06 61° SSW 18:31:14 20° SE
NOAA 11 4.1 18:24:22 10° SSE 18:29:49 70° ENE 18:35:17 10° NNW
SKYMED 3 4.5 18:26:59 10° NNE 18:31:21 71° ESE 18:35:41 10° S
Starlink S 3.4 18:28:16 10° WNW 18:31:32 59° SSW 18:33:35 20° SE
HJ-1C 4.2 18:32:54 29° ENE 18:32:54 29° ENE 18:35:44 10° N
Cosmos 1954 Rocket 4.5 18:28:39 10° NNW 18:33:41 40° NE 18:37:30 16° ESE
Starlink C 3.5 18:30:39 10° WNW 18:33:55 57° SSW 18:35:52 21° SE
H-2A R/B 3.0 18:33:08 22° E 18:34:51 26° ENE 18:39:08 10° N
Cosmos 2218 Rocket 4.2 18:29:10 10° SSW 18:35:33 79° W 18:42:01 10° N
Cosmos 1076 Rocket 4.2 18:32:02 10° SSE 18:35:50 31° E 18:37:45 22° NE
CENTAUR R/B 4.1 18:32:50 10° SE 18:35:03 14° ESE 18:35:03 14° ESE
Starlink E 3.5 18:33:06 10° WNW 18:36:23 56° SSW 18:38:15 22° SE
Meteor 1-27 4.2 18:31:22 10° NNW 18:36:58 88° W 18:42:34 10° S
Starlink J 3.6 18:35:34 10° WNW 18:38:49 54° SSW 18:40:36 23° SE
Meteor 1-11 4.1 18:34:32 10° S 18:40:07 83° ESE 18:45:44 10° NNE
Cosmos 1943 3.1 18:35:31 10° NNW 18:41:13 81° ENE 18:46:53 10° SSE
Starlink V 3.6 18:38:00 10° WNW 18:41:15 52° SSW 18:42:57 24° SE
Starlink H 3.7 18:40:28 10° W 18:43:41 51° SSW 18:45:19 25° SE
Cosmos 2123 Rocket 4.2 18:38:25 10° N 18:44:31 47° ENE 18:50:31 10° SE
Cosmos 407 Rocket 3.4 18:40:29 10° NNW 18:45:49 82° ENE 18:51:03 10° SSE
Starlink F 3.7 18:42:55 10° W 18:46:09 49° SSW 18:47:41 26° SE
NOSS 3-2 (A) 4.1 18:42:32 10° S 18:47:36 32° ESE 18:49:29 27° E
SL-8 R/B 4.1 18:43:02 10° WSW 18:47:45 56° S 18:50:09 27° ESE
Cosmos 1000 Rocket 4.4 18:42:00 10° N 18:48:15 75° E 18:54:30 10° SSE
Cosmos 1934 Rocket 4.3 18:42:55 10° SSE 18:48:22 37° E 18:53:52 10° NNE
Starlink G 3.8 18:45:22 10° W 18:48:36 48° SSW 18:50:02 27° SE
Cosmos 1190 Rocket 3.9 18:43:23 10° NNW 18:48:44 76° ENE 18:54:03 10° SSE
Cosmos 2058 3.5 18:45:09 10° SSE 18:48:43 34° E 18:48:43 34° E
Starlink L 3.9 18:47:48 10° W 18:51:02 46° SSW 18:52:23 28° SSE
ERBS 3.2 18:48:45 10° WNW 18:51:51 34° N 18:52:26 31° NNE
Cosmos 1371 Rocket 4.4 18:47:30 10° S 18:52:20 41° ESE 18:54:20 29° ENE
CSL-04 Debris 4.3 18:47:38 10° SSE 18:53:02 79° WSW 18:58:30 10° NNW
Starlink A 3.9 18:50:17 10° W 18:53:29 45° SSW 18:54:45 29° SSE
SKYMED 2 3.8 18:51:08 10° N 18:55:29 70° WNW 18:59:48 10° SSW
Starlink R 4.0 18:52:45 10° W 18:55:56 43° SSW 18:57:08 29° SSE
Starlink K 4.0 18:55:13 10° W 18:58:23 42° SSW 18:59:30 30° SSE
Starlink M 4.1 18:57:39 10° W 19:00:50 41° SSW 19:01:51 31° SSE
Cosmos 676 Rocket 4.0 18:56:16 10° NNW 19:01:37 63° ENE 19:05:10 21° SE
ADEOS Rocket 3.5 18:56:25 10° NNE 19:03:07 54° E 19:10:24 10° S
USA 234 4.3 18:58:15 10° SSE 19:04:25 43° SW 19:10:37 10° WNW
Cosmos 44 Rocket 3.1 18:59:51 10° SSW 19:04:38 76° SE 19:06:24 38° NE
SPOT 3 Rocket 4.3 19:05:57 32° NE 19:05:57 32° NE 19:10:08 10° N
ATLAS 5 CENTAUR R/B 3.4 19:02:13 10° NW 19:06:26 26° NNE 19:07:52 23° NE
CSL-04 Rocket 4.2 19:04:03 10° S 19:09:31 62° WSW 19:15:04 10° NNW
CZ-4 R/B 3.0 19:06:43 10° SSW 19:10:34 37° W 19:14:31 10° NNW
YAOGAN 1 3.6 19:07:04 10° S 19:11:14 47° W 19:15:27 10° NNW
Ariane Rocket 2.9 19:06:18 10° SSE 19:11:22 73° ENE 19:16:28 10° NNW
Cosmos 2082 Rocket 4.0 19:13:27 10° NNW 19:16:40 15° NNE 19:16:47 15° NNE
Cosmos 1624 Rocket 4.0 19:13:29 10° S 19:18:39 58° ESE 19:19:50 47° ENE
Cosmos 1400 Rocket 4.4 19:17:43 10° N 19:19:30 24° N 19:19:30 24° N
Cosmos 2084 3.4 19:19:06 10° NW 19:23:32 80° SW 19:24:16 60° SSE
Timation 1 Rocket 4.2 19:20:46 10° SSW 19:26:42 69° ESE 19:28:51 40° NE
USA 238 DEB 3.6 19:22:36 10° SSW 19:29:11 61° SE 19:31:14 44° ENE
USA 238 3.6 19:22:44 10° SSW 19:29:17 61° SE 19:31:17 44° ENE
BREEZE-M DEB (TANK) 4.1 19:14:51 10° W 19:29:38 66° SSW 19:31:13 43° SE
COSMOS 2406 4.3 19:27:11 10° NNW 19:31:18 27° NNE 19:31:18 27° NNE
Cosmos 1447 Rocket 4.5 19:28:29 10° N 19:34:32 54° ENE 19:34:58 53° E
Cosmos 2056 Rocket 3.4 19:29:45 10° SSW 19:35:02 75° ESE 19:36:02 58° NE
In-Cosmos 22 Rocket 4.0 19:33:12 10° S 19:38:49 80° E 19:42:46 20° NNE
Cosmos 1140 Rocket 4.3 19:39:35 10° NNW 19:44:40 50° WSW 19:49:41 10° S
MOS 1 4.3 19:43:31 19° SSE 19:47:47 81° WSW 19:53:31 10° NNW
CZ-2C R/B 3.1 19:47:51 71° E 19:48:09 73° ENE 19:53:56 10° NNW
ARGOS 3.0 19:49:47 78° ESE 19:50:04 81° ENE 19:55:30 10° NNW
ISS -1.4 19:52:25 10° W 19:53:59 25° W 19:53:59 25° W
Cosmos 2297 Rocket 4.4 19:55:41 10° WNW 19:59:41 19° NNW 20:03:08 12° N
Cosmos 1850 Rocket 4.4 19:55:33 10° NNW 19:59:42 54° N 19:59:42 54° N
Cosmos 2263 Rocket 2.4 19:55:25 10° SW 20:00:58 69° NW 20:02:08 53° N
USA 267 3.4 20:09:21 57° NNE 20:10:28 66° NNW 20:16:57 10° W
ATLAS 3B R/B 4.1 20:04:46 10° S 20:07:10 22° S 20:07:10 22° S
Cosmos 2227 Rocket 4.5 20:09:53 10° WNW 20:13:39 18° NNW 20:16:36 13° N
H-2A R/B 2.4 20:13:44 59° WSW 20:13:56 60° W 20:19:06 10° NNW
Cosmos 1605 Rocket 4.0 20:10:46 10° SSW 20:17:08 83° W 20:23:36 10° N
Cosmos 1833 Rocket 4.3 20:12:44 10° NNW 20:15:28 24° N 20:15:28 24° N
NOSS 3-2 (C) 4.1 20:16:01 10° SW 20:19:51 44° SSW 20:19:51 44° SSW
CENTAUR R/B 3.5 20:19:12 10° SSW 20:22:18 33° SSW 20:22:18 33° SSW
NOSS 3-2 (A) 3.8 20:31:56 10° SW 20:36:55 61° W 20:36:55 61° W
ADEOS Rocket 4.4 20:42:15 10° N 20:48:30 42° WNW 20:55:19 10° SW
ATLAS 5 CENTAUR R/B 3.8 20:46:58 10° NW 20:49:24 27° NNW 20:49:24 27° NNW
Cosmos 2082 Rocket 4.3 20:57:03 10° NNW 20:58:39 18° NNW 20:58:39 18° NNW
